Avoca, PA

2:59 AM EDT on September 15, 2019 (GMT -0400)
Wilkes-Barre-Scranton International

Weather History for KAVP - August, 2019

Change the Weather History Date:

Wednesday, August 21, 2019

  Actual Average Record
Temperature  
Mean Temperature 79 °F 69 °F  
Max Temperature 86 °F 79 °F 95 °F (1916)
Min Temperature 71 °F 59 °F 43 °F (2000)
Degree Days  
Heating Degree Days 0 1  
Month to date heating degree days 0 4  
Since 1 June heating degree days 32 66  
Since 1 July heating degree days 0 12  
Cooling Degree Days 14 5  
Month to date cooling degree days 200 120  
Year to date cooling degree days 714 480  
Since 1 June cooling degree days 664 443  
Growing Degree Days 29 (Base 50)    
Moisture  
Dew Point 69 °F    
Average Humidity 75    
Maximum Humidity 93    
Minimum Humidity 57    
Precipitation  
Precipitation T in 0.11 in 1.07 in (1991)
Month to date precipitation 4.86 2.37  
Year to date precipitation 36.94 23.99  
Sea Level Pressure  
Sea Level Pressure 29.91 in    
Wind  
Wind Speed 5 mph (SW)    
Max Wind Speed 17 mph    
Max Gust Speed 20 mph    
Visibility 10 miles    
Events      
T = Trace of Precipitation, MM = Missing Value Source: NWS Daily Summary

Daily Weather History Graph

Daily Weather History Graph

Search for Another Location

Airport or City:

Astronomy

Aug. 21, 2019 Rise Set
Actual Time 6:17 AM EDT 7:53 PM EDT
Civil Twilight 5:48 AM EDT 8:22 PM EDT
Nautical Twilight 5:13 AM EDT 8:57 PM EDT
Astronomical Twilight 4:35 AM EDT 9:35 PM EDT
Moon 11:06 PM EDT (8/21) 11:55 AM EDT (8/21)
Length of Visible Light 14h 34m
Length of Day
13h 35m
Waning Gibbous, 69% of the Moon is Illuminated
Aug 21
Waning Gibbous
Aug 23
Last Quarter
Aug 30
New
Sep 5
First Quarter
Sep 14
Full

Hourly Weather History & Observations

Time (EDT) Temp. Heat Index Dew Point Humidity Pressure Visibility Wind Dir Wind Speed Gust Speed Precip Events Conditions
12:54 AM 73.9 °F - 69.1 °F 85% 30.01 in 10.0 mi Calm Calm - N/A   Partly Cloudy
1:54 AM 73.0 °F - 69.1 °F 87% 30.01 in 10.0 mi Calm Calm - N/A   Partly Cloudy
2:54 AM 75.0 °F - 70.0 °F 84% 29.97 in 10.0 mi Calm Calm - N/A   Partly Cloudy
3:54 AM 75.0 °F - 70.0 °F 84% 29.97 in 9.0 mi SW 5.8 mph - N/A   Clear
4:54 AM 75.0 °F - 69.1 °F 82% 29.95 in 9.0 mi SSW 6.9 mph - N/A   Clear
5:54 AM 73.0 °F - 68.0 °F 84% 29.93 in 10.0 mi Calm Calm - N/A   Clear
6:54 AM 73.0 °F - 68.0 °F 84% 29.92 in 9.0 mi Calm Calm - N/A   Clear
7:54 AM 75.0 °F - 69.1 °F 82% 29.94 in 9.0 mi WSW 5.8 mph - N/A   Clear
8:54 AM 75.0 °F - 69.1 °F 82% 29.96 in 9.0 mi SSW 3.5 mph - 0.00 in   Mostly Cloudy
9:54 AM 75.9 °F - 69.1 °F 79% 29.94 in 10.0 mi SW 4.6 mph - 0.00 in   Mostly Cloudy
10:54 AM 79.0 °F - 70.0 °F 74% 29.93 in 10.0 mi WSW 5.8 mph - N/A   Partly Cloudy
11:54 AM 81.0 °F 84.4 °F 70.0 °F 69% 29.91 in 10.0 mi WSW 10.4 mph - 0.00 in   Partly Cloudy
12:54 PM 84.0 °F 87.0 °F 68.0 °F 58% 29.88 in 10.0 mi WSW 12.7 mph - N/A   Clear
1:54 PM 82.9 °F 86.5 °F 69.1 °F 63% 29.88 in 10.0 mi WSW 12.7 mph - N/A   Mostly Cloudy
2:54 PM 84.0 °F 88.4 °F 70.0 °F 63% 29.88 in 10.0 mi West 11.5 mph - N/A   Mostly Cloudy
3:54 PM 84.9 °F 89.4 °F 70.0 °F 61% 29.86 in 10.0 mi SW 9.2 mph - N/A   Partly Cloudy
4:54 PM 86.0 °F 90.1 °F 69.1 °F 57% 29.85 in 10.0 mi WSW 13.8 mph - N/A   Partly Cloudy
5:54 PM 84.0 °F 87.8 °F 69.1 °F 61% 29.85 in 10.0 mi WSW 9.2 mph - N/A   Clear
6:32 PM 84.0 °F 87.8 °F 69.1 °F 61% 29.87 in 10.0 mi WSW 8.1 mph - N/A   Clear
6:54 PM 82.0 °F 85.9 °F 70.0 °F 67% 29.84 in 10.0 mi WSW 5.8 mph - N/A   Clear
7:54 PM 80.1 °F 83.6 °F 71.1 °F 74% 29.85 in 9.0 mi SSW 4.6 mph - N/A   Clear
8:54 PM 77.0 °F - 71.1 °F 82% 29.87 in 10.0 mi Calm Calm - N/A   Partly Cloudy
9:54 PM 73.9 °F - 70.0 °F 87% 29.88 in 10.0 mi Calm Calm - N/A   Clear
10:54 PM 72.0 °F - 70.0 °F 93% 29.87 in 9.0 mi SE 3.5 mph - N/A   Clear
11:54 PM 71.1 °F - 69.1 °F 93% 29.87 in 9.0 mi Calm Calm - N/A   Clear